[[{"header":{"parameterUnit":"m.s-1","parameterCategory":1,"la1":30.2991,"la2":30.254,"lo1":-89.0895,"lo2":-89.0444,"dy":0.0017,"dx":0.0017,"nx":28,"ny":28,"refTime":"2024-10-20T21:00:00:Z","depth":0,"parameterNumber":2,"parameterNumberName":"U-component_of_WINDS"},"data":[0,0,0,0,0,0,0,0,0,0,0,0,0,0,0,0,0,0,0,0,0,0,0,0,0,0,0,0,0,0,0,0,0,0,0,0,0,0,0,0,0,0,0,0,0,0,0,0,0,0,0,0,0,0,0,0,0,0,-2.5967,-2.5968,0,-2.6019,-2.602,-2.602,-2.5918,-2.5914,-2.5911,-2.5908,-2.5964,-2.5968,-2.5973,0,0,0,0,0,0,0,0,0,0,0,0,0,-2.5782,-2.5786,-2.5967,-2.5968,-2.5969,-2.6019,-2.602,-2.602,-2.5918,-2.5914,-2.591,-2.5906,-2.5962,-2.5968,-2.5973,0,0,0,0,0,0,0,0,0,0,0,0,0,-2.5851,-2.5787,-2.5967,-2.5924,-2.592,-2.6019,-2.602,-2.602,-2.5919,-2.5914,-2.5909,-2.5904,-2.596,-2.5967,-2.5974,-2.6118,0,0,-2.5995,-2.5998,0,0,0,0,0,0,0,0,-2.5847,-2.5858,-2.5929,-2.5927,-2.5923,-2.5957,-2.5974,-2.6053,-2.5921,-2.592,-2.5908,-2.5902,-2.5966,-2.5972,-2.5993,-2.6121,-2.6123,-2.5996,-2.6,-2.6003,-2.6005,0,0,0,0,0,0,0,-2.5842,-2.5855,-2.5988,-2.5931,-2.5927,-2.5902,-2.5906,-2.5989,-2.5971,-2.5919,-2.5912,-2.592,-2.5963,-2.5986,-2.5993,-2.6124,-2.5996,-2.6002,-2.6006,-2.6009,-2.6372,-2.6377,0,0,0,0,0,0,-2.5843,-2.5852,-2.5986,-2.5989,-2.5872,-2.591,-2.5914,-2.5951,-2.5969,-2.5967,-2.5924,-2.5915,-2.5977,-2.5985,-2.5995,-2.6165,-2.6003,-2.6009,-2.6013,-2.6367,-2.6373,-2.6379,0,0,0,0,0,0,-2.5839,-2.5856,-2.5984,-2.5919,-2.5933,-2.5918,-2.596,-2.5955,-2.5978,-2.5973,-2.5969,-2.5951,-2.5973,-2.5985,-2.6088,-2.6166,-2.6013,-2.6019,-2.636,-2.6369,-2.6376,-2.6507,0,0,0,0,0,0,-2.5834,-2.5855,-2.591,-2.592,-2.5937,-2.6076,-2.5965,-2.5959,-2.599,-2.5978,-2.5997,-2.5995,-2.597,-2.6078,-2.6095,-2.6173,-2.6024,-2.6353,-2.6364,-2.6374,-2.6496,-2.6519,-2.6538,0,0,0,0,0,-2.5828,-2.5945,-2.5913,-2.593,-2.6004,-2.6081,-2.609,-2.6058,-2.5997,-2.6051,-2.6048,-2.5995,-2.6154,-2.6089,-2.6107,-2.6189,-2.6348,-2.6361,-2.6373,-2.6486,-2.6514,-2.6538,0,0,0,0,0,0,-2.5945,-2.5946,-2.591,-2.6034,-2.6058,-2.6064,-2.6132,-2.6089,-2.6132,-2.612,-2.6078,-2.6083,-2.6195,-2.6201,-2.6129,-2.6328,-2.6241,-2.6257,-2.6321,-2.6347,-2.6368,-2.6366,-2.603,0,0,0,0,0,-2.5985,-2.6046,-2.6044,-2.6153,-2.6167,-2.6148,-2.618,-2.6152,-2.6176,-2.6186,-2.619,-2.6216,-2.6271,-2.6309,-2.636,-2.6495,-2.6498,-2.656,-2.6581,-2.6598,-2.6614,-2.6687,-2.6714,-2.642,-2.642,-2.6419,0,0,-2.6069,-2.6076,-2.6118,-2.6177,-2.6192,-2.6258,-2.6157,-2.623,-2.6279,-2.6198,-2.6295,-2.6299,-2.6324,-2.6444,-2.6497,-2.6453,-2.6695,-2.6614,-2.6628,-2.6634,-2.6702,-2.673,-2.6755,-2.6428,-2.6427,-2.6425,0,0,-2.6255,-2.6267,-2.6359,-2.6376,-2.6401,-2.6387,-2.6409,-2.6421,-2.642,-2.6516,-2.6457,-2.6513,-2.661,-2.6631,-2.6655,-2.6847,-2.68,-2.6864,-2.6977,-2.7048,-2.7071,-2.7092,-2.7162,-2.7187,-2.6879,-2.688,-2.688,0,-2.6357,-2.6452,-2.6413,-2.649,-2.6518,-2.6446,-2.654,-2.6558,-2.6599,-2.662,-2.6569,-2.6689,-2.6701,-2.6825,-2.6872,-2.6892,-2.6917,-2.6864,-2.7071,-2.7091,-2.711,-2.7176,-2.7202,-2.6887,-2.6887,-2.6886,-2.6885,0,-2.6576,-2.6643,-2.6715,-2.6755,-2.679,-2.6876,-2.685,-2.6891,-2.686,-2.6851,-2.6951,-2.6962,-2.7014,-2.7041,-2.7012,-2.7161,-2.7133,-2.7077,-2.6989,-2.7146,-2.7208,-2.7233,-2.6899,-2.6896,-2.6893,-2.6892,0,0,-2.6841,-2.6856,-2.6884,-2.6901,-2.6921,-2.6972,-2.7054,-2.7104,-2.714,-2.7169,-2.7238,-2.732,-2.7268,-2.7295,-2.7267,-2.7329,-2.7483,-2.7266,-2.7266,-2.7308,-2.7649,-2.7693,-2.7723,-2.745,-2.7455,-2.7459,-2.7647,0,-2.7028,-2.7168,-2.7134,-2.7274,-2.7335,-2.7266,-2.7337,-2.7358,-2.7352,-2.7403,-2.7396,-2.7456,-2.7382,-2.7398,-2.7456,-2.7452,-2.7551,-2.7437,-2.7515,-2.7519,-2.7514,-2.7755,-2.7801,-2.7979,-2.7671,-2.7675,-2.7678,0,-2.7264,-2.7302,-2.7448,-2.7457,-2.7482,-2.7547,-2.7589,-2.7639,-2.7661,-2.7651,-2.768,-2.764,-2.7721,-2.7629,-2.7741,-2.7665,-2.7694,-2.7697,-2.7703,-2.7711,-2.761,-2.7772,-2.8035,-2.8063,-2.7715,-2.7712,-2.771,0,-2.7446,-2.7532,-2.763,-2.7647,-2.766,-2.7707,-2.7715,-2.7731,-2.7763,-2.78,-2.7821,-2.7867,-2.7893,-2.793,-2.7904,-2.7839,-2.8021,-2.7926,-2.8017,-2.8018,-2.8061,-2.8059,-2.8335,-2.8076,-2.8075,-2.8075,-2.8074,0,-2.7659,-2.7751,-2.7712,-2.7773,-2.7874,-2.7833,-2.7935,-2.7934,-2.7949,-2.8009,-2.7951,-2.8009,-2.7969,-2.8024,-2.8003,-2.81,-2.8111,-2.8107,-2.8101,-2.8114,-2.8115,-2.8135,-2.8123,-2.8082,-2.808,-2.8079,-2.8078,0,-2.788,-2.7857,-2.796,-2.7963,-2.7966,-2.8041,-2.8044,-2.81,-2.8088,-2.8165,-2.818,-2.8162,-2.8223,-2.8199,-2.8264,-2.825,-2.8374,-2.8351,-2.8368,-2.8362,-2.8455,-2.8448,-2.8756,-2.8794,-2.8508,-2.8511,-2.8513,0,-2.8019,-2.8088,-2.8098,-2.8134,-2.8145,-2.8203,-2.8235,-2.8197,-2.8233,-2.8261,-2.8315,-2.837,-2.8413,-2.8514,-2.8507,-2.8556,-2.8535,-2.8639,-2.8542,-2.8553,-2.8539,-2.8536,-2.8544,-2.866,-2.8663,-2.8666,-2.8668,0,-2.8269,-2.8253,-2.8301,-2.8345,-2.8384,-2.8417,-2.8445,-2.8478,-2.8441,-2.8484,-2.8545,-2.8578,-2.8643,-2.8699,-2.8743,-2.8751,-2.8705,-2.8698,-2.8722,-2.8737,-2.8745,-2.8744,-2.8423,-2.8692,-2.869,-2.8688,-2.8686,-2.8686,-2.8455,-2.8513,-2.8529,-2.8584,-2.86,-2.8627,-2.8681,-2.8675,-2.8725,-2.8775,-2.8748,-2.882,-2.8838,-2.8892,-2.8906,-2.8962,-2.8921,-2.8956,-2.8965,-2.8975,-2.8988,-2.8734,-2.8969,-2.8969,-2.8968,-2.8967,-2.8967,0,-2.8703,-2.871,-2.876,-2.8801,-2.8844,-2.8793,-2.8821,-2.8861,-2.8924,-2.8945,-2.8988,-2.9058,-2.9112,-2.9108,-2.9158,-2.9203,-2.9183,-2.9218,-2.9216,-2.9219,-2.902,-2.8995,-2.9233,-2.9233,-2.9233,-2.9233,-2.9233,-2.9233,-2.8838,-2.8935,-2.8921,-2.9025,-2.903,-2.9099,-2.9119,-2.9144,-2.916,-2.9241,-2.9285,-2.9282,-2.9293,-2.9343,-2.939,-2.9387,-2.941,-2.9453,-2.9443,-2.9259,-2.9232,-2.9207,-2.9184,-2.9457,-2.9458,-2.9637,-2.9639,-2.964]},{"header":{"parameterUnit":"m.s-1","parameterCategory":1,"la1":30.2991,"la2":30.254,"lo1":-89.0895,"lo2":-89.0444,"dy":0.0017,"dx":0.0017,"nx":28,"ny":28,"refTime":"2024-10-20T21:00:00:Z","depth":0,"parameterNumber":3,"parameterNumberName":"V-component_of_WINDS"},"data":[0,0,0,0,0,0,0,0,0,0,0,0,0,0,0,0,0,0,0,0,0,0,0,0,0,0,0,0,0,0,0,0,0,0,0,0,0,0,0,0,0,0,0,0,0,0,0,0,0,0,0,0,0,0,0,0,0,0,-3.2083,-3.2083,0,-3.2089,-3.2089,-3.2089,-3.204,-3.2038,-3.2037,-3.2036,-3.2041,-3.2043,-3.2044,0,0,0,0,0,0,0,0,0,0,0,0,0,-3.2029,-3.203,-3.2083,-3.2083,-3.2083,-3.2089,-3.2089,-3.2089,-3.204,-3.2038,-3.2037,-3.2035,-3.2041,-3.2042,-3.2044,0,0,0,0,0,0,0,0,0,0,0,0,0,-3.2045,-3.2031,-3.2083,-3.206,-3.2058,-3.2089,-3.2089,-3.2089,-3.204,-3.2038,-3.2036,-3.2034,-3.204,-3.2042,-3.2044,-3.2098,0,0,-3.2051,-3.2052,0,0,0,0,0,0,0,0,-3.2044,-3.2047,-3.2063,-3.2061,-3.2059,-3.2061,-3.2072,-3.2092,-3.2041,-3.2047,-3.2036,-3.2033,-3.205,-3.2051,-3.2056,-3.2098,-3.2099,-3.2051,-3.2052,-3.2053,-3.2054,0,0,0,0,0,0,0,-3.2043,-3.2047,-3.2085,-3.2063,-3.2061,-3.2048,-3.2048,-3.2075,-3.206,-3.2046,-3.2043,-3.2044,-3.2048,-3.2054,-3.2056,-3.2099,-3.2051,-3.2053,-3.2054,-3.2055,-3.2183,-3.2185,0,0,0,0,0,0,-3.2046,-3.2046,-3.2085,-3.2085,-3.2047,-3.2051,-3.2051,-3.2063,-3.2059,-3.2057,-3.2046,-3.2042,-3.2052,-3.2054,-3.2056,-3.2117,-3.2053,-3.2055,-3.2056,-3.2181,-3.2184,-3.2186,0,0,0,0,0,0,-3.2045,-3.205,-3.2085,-3.2065,-3.2068,-3.2054,-3.2068,-3.2064,-3.207,-3.2059,-3.2056,-3.2055,-3.205,-3.2053,-3.2088,-3.2117,-3.2056,-3.2058,-3.2179,-3.2182,-3.2185,-3.2241,0,0,0,0,0,0,-3.2043,-3.2049,-3.207,-3.2066,-3.207,-3.2117,-3.2069,-3.2065,-3.2074,-3.2069,-3.2067,-3.2064,-3.2049,-3.2085,-3.209,-3.2119,-3.206,-3.2176,-3.218,-3.2184,-3.2236,-3.2246,-3.2254,0,0,0,0,0,-3.2041,-3.2086,-3.2072,-3.2076,-3.2095,-3.2119,-3.2121,-3.2102,-3.2077,-3.2097,-3.2089,-3.2065,-3.2113,-3.2089,-3.2094,-3.2124,-3.2174,-3.2179,-3.2183,-3.2233,-3.2244,-3.2253,0,0,0,0,0,0,-3.2095,-3.2085,-3.2069,-3.2114,-3.2117,-3.211,-3.2135,-3.2115,-3.2126,-3.2121,-3.2097,-3.2097,-3.2135,-3.2133,-3.2106,-3.2175,-3.2139,-3.2145,-3.2174,-3.2185,-3.2193,-3.2192,-3.2061,0,0,0,0,0,-3.2112,-3.2132,-3.2122,-3.2163,-3.2165,-3.215,-3.216,-3.2145,-3.2148,-3.2149,-3.2144,-3.2148,-3.2163,-3.2174,-3.2188,-3.2236,-3.2234,-3.2259,-3.2268,-3.2275,-3.228,-3.2303,-3.2314,-3.2202,-3.2202,-3.2202,0,0,-3.2147,-3.2144,-3.2159,-3.2173,-3.2174,-3.2195,-3.2152,-3.2176,-3.2191,-3.2153,-3.2184,-3.2181,-3.2183,-3.2224,-3.2242,-3.2224,-3.2311,-3.2281,-3.2287,-3.2288,-3.2309,-3.232,-3.2329,-3.2205,-3.2204,-3.2204,0,0,-3.2222,-3.2222,-3.2255,-3.2257,-3.2258,-3.2248,-3.2256,-3.2252,-3.2248,-3.2279,-3.2251,-3.2268,-3.2296,-3.2298,-3.2303,-3.2377,-3.2354,-3.2382,-3.2427,-3.245,-3.2459,-3.2466,-3.2491,-3.25,-3.2388,-3.2388,-3.2388,0,-3.2265,-3.2295,-3.2274,-3.23,-3.2306,-3.2272,-3.2304,-3.2307,-3.2314,-3.2319,-3.2299,-3.2332,-3.2332,-3.2371,-3.2389,-3.2395,-3.2402,-3.2382,-3.2459,-3.2466,-3.2473,-3.2496,-3.2506,-3.2391,-3.2391,-3.239,-3.239,0,-3.2347,-3.2369,-3.2395,-3.2401,-3.2411,-3.244,-3.2422,-3.2435,-3.2419,-3.241,-3.2442,-3.244,-3.2452,-3.2461,-3.2446,-3.2498,-3.2486,-3.2463,-3.2426,-3.2488,-3.2509,-3.2518,-3.2396,-3.2395,-3.2394,-3.2393,0,0,-3.2456,-3.2449,-3.2459,-3.2461,-3.246,-3.2475,-3.2502,-3.2514,-3.2524,-3.253,-3.255,-3.2574,-3.2552,-3.2558,-3.2543,-3.2563,-3.2619,-3.2537,-3.2536,-3.2551,-3.2675,-3.2691,-3.2702,-3.2605,-3.2606,-3.2608,-3.2674,0,-3.2527,-3.2572,-3.2553,-3.2599,-3.2617,-3.2585,-3.2608,-3.261,-3.2602,-3.2616,-3.2608,-3.2625,-3.2595,-3.2598,-3.2617,-3.2609,-3.2644,-3.2604,-3.2623,-3.2624,-3.2622,-3.2714,-3.2731,-3.2794,-3.2683,-3.2684,-3.2685,0,-3.2616,-3.2624,-3.2672,-3.2666,-3.2672,-3.2694,-3.2701,-3.2716,-3.2717,-3.271,-3.2715,-3.2695,-3.272,-3.2685,-3.2718,-3.2691,-3.2698,-3.2695,-3.2697,-3.2697,-3.2657,-3.2714,-3.2814,-3.2823,-3.2698,-3.2697,-3.2696,0,-3.2687,-3.2711,-3.2741,-3.2744,-3.2738,-3.2754,-3.2752,-3.2751,-3.2758,-3.2766,-3.277,-3.278,-3.2786,-3.2794,-3.2777,-3.2753,-3.2812,-3.2776,-3.2806,-3.2807,-3.2819,-3.2818,-3.2919,-3.2826,-3.2826,-3.2826,-3.2826,0,-3.2768,-3.2798,-3.2773,-3.2792,-3.2824,-3.2803,-3.2835,-3.283,-3.2829,-3.2846,-3.2819,-3.2836,-3.2813,-3.2827,-3.2814,-3.2843,-3.2846,-3.284,-3.2836,-3.2842,-3.2842,-3.2845,-3.2839,-3.2828,-3.2828,-3.2827,-3.2827,0,-3.2853,-3.2838,-3.2869,-3.2861,-3.2859,-3.2883,-3.2876,-3.2893,-3.2883,-3.2905,-3.2909,-3.2894,-3.2909,-3.2893,-3.2907,-3.2898,-3.2936,-3.2927,-3.2936,-3.2932,-3.2963,-3.296,-3.3068,-3.308,-3.2981,-3.2982,-3.2983,0,-3.2904,-3.2926,-3.292,-3.2929,-3.2928,-3.2944,-3.2951,-3.293,-3.2939,-3.294,-3.2957,-3.2969,-3.2978,-3.3004,-3.2994,-3.3004,-3.2994,-3.3031,-3.2995,-3.2999,-3.2992,-3.299,-3.2992,-3.3038,-3.3039,-3.304,-3.3041,0,-3.2996,-3.2987,-3.2998,-3.3007,-3.3016,-3.3021,-3.3025,-3.3034,-3.3012,-3.3023,-3.3038,-3.3045,-3.3059,-3.3071,-3.3078,-3.3076,-3.3055,-3.3053,-3.306,-3.3065,-3.3068,-3.3065,-3.2954,-3.305,-3.3049,-3.3048,-3.3048,-3.3047,-3.3065,-3.3082,-3.308,-3.3092,-3.3093,-3.3096,-3.3111,-3.3103,-3.3115,-3.3124,-3.3111,-3.3129,-3.3128,-3.3135,-3.3136,-3.3149,-3.3133,-3.3144,-3.3146,-3.3149,-3.3153,-3.3068,-3.315,-3.315,-3.315,-3.315,-3.3149,0,-3.3154,-3.315,-3.3162,-3.3167,-3.3177,-3.3156,-3.3159,-3.3168,-3.3184,-3.3185,-3.3193,-3.3209,-3.3221,-3.3212,-3.3222,-3.3234,-3.3224,-3.3237,-3.3235,-3.3235,-3.3167,-3.3159,-3.3245,-3.3245,-3.3245,-3.3245,-3.3245,-3.3245,-3.3201,-3.3228,-3.3219,-3.3246,-3.3242,-3.3259,-3.3262,-3.3265,-3.3265,-3.3284,-3.3293,-3.3287,-3.3283,-3.3292,-3.3302,-3.3299,-3.3303,-3.3319,-3.3312,-3.3249,-3.324,-3.3231,-3.3223,-3.332,-3.332,-3.3378,-3.3379,-3.3379]}]]